Date,TemperatureHighF,TemperatureAvgF,TemperatureLowF,DewpointHighF,DewpointAvgF,DewpointLowF,HumidityHigh,HumidityAvg,HumidityLow,PressureMaxIn,PressureMinIn,WindSpeedMaxMPH,WindSpeedAvgMPH,GustSpeedMaxMPH,PrecipitationSumIn
2013-1-1,36,32,30,35,22,-100,98,83,74,30.11,30.00,2,-57,7,0.23
2013-1-2,36,30,24,24,20,16,86,68,46,30.24,30.09,3,0,5,0.04
2013-1-3,42,29,20,26,21,18,93,72,44,30.32,30.20,4,1,6,0.00
2013-1-4,41,33,29,24,22,21,77,65,50,30.38,30.29,6,2,14,0.00
2013-1-5,46,34,21,28,24,18,93,70,44,30.42,30.19,3,0,6,0.00
2013-1-6,45,40,32,32,28,22,73,62,56,30.32,30.01,10,2,14,0.00
2013-1-7,42,33,25,25,23,21,88,68,50,30.50,30.25,3,0,5,0.00
2013-1-8,54,35,21,32,25,19,93,72,36,30.39,30.26,5,0,7,0.00
2013-1-9,53,41,31,48,38,27,98,87,75,30.49,30.24,3,0,4,0.03
2013-1-10,47,39,31,43,37,30,100,93,78,30.53,30.15,3,0,6,0.02
2013-1-11,63,52,40,58,47,-100,99,89,72,30.14,29.92,9,-16,14,0.30
2013-1-12,69,57,45,63,56,45,100,96,78,30.05,29.86,4,0,8,0.09
2013-1-13,64,59,48,60,57,47,100,94,74,29.99,29.81,9,1,16,0.76
2013-1-14,48,34,31,46,19,-100,95,72,68,30.39,30.02,8,-98,13,0.00
2013-1-15,36,33,30,32,28,26,96,83,72,30.34,30.04,4,1,7,0.53
2013-1-16,36,31,33,34,23,-100,98,89,93,30.09,29.87,5,-75,10,0.24
2013-1-17,36,34,29,33,30,27,95,86,76,30.32,30.08,3,0,11,0.00
2013-1-18,39,32,22,28,21,15,94,65,41,30.56,30.32,5,1,14,0.00
2013-1-19,56,44,28,28,25,20,76,48,29,30.32,29.96,8,3,21,0.00
2013-1-20,47,42,26,32,20,5,71,44,20,30.16,29.95,7,3,20,0.00
2013-1-21,36,27,18,18,13,0,83,57,36,30.21,30.02,8,3,25,0.00
2013-1-22,23,17,11,2,-1,-5,61,45,30,30.38,30.20,6,2,18,0.00
2013-1-23,24,20,12,8,3,-2,64,47,35,30.38,30.09,3,1,10,0.00
2013-1-24,26,22,17,14,7,0,72,53,35,30.55,30.09,8,2,24,0.00
2013-1-25,27,22,20,24,14,4,91,73,48,30.48,30.04,2,0,7,0.00
2013-1-26,35,29,21,25,22,18,91,75,56,30.45,30.17,4,1,16,0.07
2013-1-27,40,30,16,33,21,13,92,73,48,30.48,30.24,3,0,8,0.11
2013-1-28,62,48,35,53,44,33,99,88,59,30.24,30.06,10,2,28,0.28
2013-1-29,72,59,48,54,49,-100,97,73,52,30.07,29.70,7,-15,20,0.01
2013-1-30,69,58,39,59,52,35,99,81,60,29.70,29.28,11,4,34,1.44
2013-1-31,39,32,27,35,22,16,91,69,55,29.94,29.47,12,4,34,0.01
2013-2-1,28,16,10,27,6,0,95,66,47,30.43,29.89,12,3,29,0.02
2013-2-2,30,21,9,29,18,5,96,86,68,30.38,30.01,4,1,10,0.01
2013-2-3,30,27,25,28,22,17,95,80,67,30.14,29.91,5,1,18,0.00
2013-2-4,41,29,16,38,22,13,95,78,52,30.14,29.83,4,1,19,0.11
2013-2-5,46,40,36,38,37,33,98,89,69,29.98,29.83,5,0,17,0.04
2013-2-6,46,39,32,32,29,26,80,67,49,30.25,29.98,4,1,17,0.00
2013-2-7,62,44,32,37,31,27,85,64,30,30.24,29.85,3,1,10,0.00
2013-2-8,48,41,34,44,33,25,94,73,64,30.27,29.77,10,3,26,0.11
2013-2-9,44,33,25,25,20,16,80,60,37,30.42,30.25,2,1,12,0.00
2013-2-10,59,40,24,43,28,20,89,67,28,30.25,29.85,7,1,21,0.12
2013-2-11,60,53,42,49,36,24,84,55,28,30.03,29.80,11,4,28,0.01
2013-2-12,53,41,29,28,25,20,85,57,29,30.13,29.88,4,1,13,0.00
2013-2-13,42,35,30,34,30,24,94,81,59,29.92,29.68,7,1,16,0.08
2013-2-14,53,40,28,36,32,27,97,76,45,29.97,29.85,7,2,19,0.01
2013-2-15,40,36,31,37,32,26,95,87,76,30.10,29.93,3,0,12,0.14
2013-2-16,34,28,22,27,18,8,90,68,42,30.09,29.97,8,2,19,0.00
2013-2-17,32,23,17,12,7,3,77,51,30,30.27,30.08,6,2,19,0.00
2013-2-18,59,38,15,34,21,11,87,56,35,30.27,29.79,7,2,19,0.00
2013-2-19,51,41,29,39,28,14,89,59,38,30.07,29.74,9,5,33,0.06
2013-2-20,35,28,22,16,13,10,63,52,39,30.30,30.07,6,3,19,0.00
2013-2-21,36,26,14,19,15,11,86,64,48,30.37,30.16,5,1,13,0.00
2013-2-22,62,42,30,48,36,18,97,81,52,30.16,29.86,7,1,20,0.14
2013-2-23,52,44,33,40,35,28,90,73,46,29.95,29.83,5,1,14,0.00
2013-2-24,46,35,25,29,24,20,95,68,40,30.15,29.89,5,1,18,0.00
2013-2-25,47,35,21,25,21,18,91,59,37,30.18,29.90,7,2,14,0.00
2013-2-26,52,45,38,47,37,22,95,76,51,29.91,29.38,8,2,19,0.56
2013-2-27,44,38,35,39,28,-100,90,79,75,29.75,29.52,7,-48,19,0.10
2013-2-28,35,34,33,34,31,28,96,86,78,29.90,29.69,5,2,17,0.05
2013-3-1,39,34,32,34,26,-100,96,78,65,30.01,29.88,3,-33,9,0.01
2013-3-2,32,30,28,24,20,17,82,67,58,30.07,29.97,6,2,11,0.01
2013-3-3,32,29,27,23,20,16,80,68,52,30.10,30.03,7,2,12,0.00
2013-3-4,45,33,18,31,18,12,92,60,27,30.21,30.03,3,0,7,0.03
2013-3-5,46,39,32,45,34,28,98,83,72,30.05,29.46,13,2,18,0.60
2013-3-6,36,31,30,32,25,-100,96,86,80,30.24,29.63,7,-32,13,0.11
2013-3-7,40,35,30,30,29,26,87,78,64,30.37,30.23,4,1,7,0.01
2013-3-8,50,35,24,31,26,22,96,72,39,30.47,30.35,5,1,10,0.01
2013-3-9,63,42,24,35,28,22,95,63,27,30.39,30.09,3,1,6,0.00
2013-3-10,76,60,42,38,34,30,79,45,20,30.10,29.86,7,2,12,0.00
2013-3-11,66,59,44,53,41,30,92,56,29,29.86,29.65,9,4,18,0.16
2013-3-12,44,39,34,38,31,29,85,73,57,30.03,29.84,5,2,13,0.01
2013-3-13,39,34,30,31,24,16,88,68,45,30.31,30.02,9,3,19,0.00
2013-3-14,47,34,24,23,18,12,82,57,25,30.38,30.21,7,2,11,0.00
2013-3-15,59,44,27,39,29,20,81,59,40,30.22,29.82,5,1,12,0.00
2013-3-16,72,54,43,52,44,35,95,70,45,29.97,29.59,9,2,19,0.17
2013-3-17,43,36,33,35,33,32,96,90,75,30.14,29.95,4,1,7,0.49
2013-3-18,55,45,35,51,43,34,99,94,83,30.01,29.64,10,3,13,1.24
2013-3-19,50,44,38,45,23,8,84,48,19,30.09,29.75,12,5,28,0.00
2013-3-20,49,38,26,20,16,10,73,43,29,30.10,29.84,10,4,21,0.00
2013-3-21,32,26,22,21,12,7,87,56,36,30.07,29.93,7,2,19,0.01
2013-3-22,47,31,17,20,14,12,82,54,25,30.10,29.98,4,1,8,0.00
2013-3-23,55,40,26,26,21,16,74,51,23,30.07,29.87,3,0,6,0.00
2013-3-24,40,38,35,39,29,19,98,72,42,29.87,29.39,5,2,10,0.62
2013-3-25,39,35,32,39,31,27,98,87,71,29.89,29.41,8,3,14,0.11
2013-3-26,41,36,33,35,31,29,92,84,67,30.22,29.89,8,2,11,0.04
2013-3-27,44,37,30,30,27,24,83,67,45,30.29,30.21,6,2,13,0.00
2013-3-28,53,39,26,30,25,21,93,61,31,30.34,30.26,6,1,11,0.00
2013-3-29,59,43,25,32,26,23,91,57,29,30.33,30.18,4,1,10,0.00
2013-3-30,63,48,31,37,31,28,93,57,28,30.25,29.95,4,1,7,0.00
2013-3-31,55,49,44,51,44,33,98,84,62,29.95,29.77,4,1,8,0.10
2013-4-1,49,45,32,45,34,20,93,68,37,30.09,29.80,7,2,16,0.02
2013-4-2,51,36,24,25,19,13,88,55,23,30.27,30.09,6,1,10,0.00
2013-4-3,51,38,23,24,16,9,84,46,19,30.40,30.25,5,1,10,0.00
2013-4-4,54,43,32,39,21,14,85,44,27,30.34,30.00,5,1,8,0.00
2013-4-5,66,49,31,43,32,24,99,59,24,30.10,29.94,6,2,11,0.00
2013-4-6,69,53,33,35,25,20,70,36,21,30.22,29.95,4,1,10,0.00
2013-4-7,75,65,56,52,40,30,80,41,28,29.97,29.91,11,4,18,0.00
2013-4-8,77,63,48,52,48,45,90,62,36,30.00,29.89,9,2,17,0.00
2013-4-9,86,68,52,57,51,48,85,59,30,30.06,29.91,7,2,13,0.00
2013-4-10,86,72,56,59,54,51,84,56,32,29.97,29.76,9,3,25,0.00
2013-4-11,82,70,58,61,54,46,92,60,30,29.78,29.48,8,2,12,0.11
2013-4-12,60,56,50,58,44,34,97,68,38,29.91,29.45,8,4,14,0.21
2013-4-13,64,50,38,36,34,30,87,56,29,30.01,29.91,8,2,17,0.00
2013-4-14,72,56,37,45,37,34,91,55,28,30.09,29.87,4,1,7,0.00
2013-4-15,74,65,57,54,50,42,80,59,43,30.01,29.91,6,3,11,0.00
2013-4-16,87,70,58,63,55,51,93,61,30,30.17,29.98,9,3,13,0.77
2013-4-17,78,67,60,63,60,58,99,81,52,30.22,29.99,7,1,19,0.35
2013-4-18,86,72,56,60,56,51,98,62,34,29.99,29.67,9,4,17,0.00
2013-4-19,75,58,44,61,45,31,94,65,43,30.01,29.50,9,4,19,0.33
2013-4-20,58,48,38,33,28,21,77,49,26,30.37,30.01,6,2,17,0.00
2013-4-21,61,48,33,31,26,23,79,45,25,30.51,30.33,4,1,9,0.00
2013-4-22,71,55,36,41,35,23,82,51,26,30.35,30.13,5,1,8,0.00
2013-4-23,75,60,41,50,41,32,82,52,30,30.16,29.91,4,1,11,0.00
2013-4-24,68,58,40,58,46,35,90,65,47,30.23,29.77,10,3,14,0.14
2013-4-25,64,49,38,40,35,26,95,62,25,30.34,30.23,6,1,17,0.00
2013-4-26,66,52,34,40,33,28,91,53,25,30.46,30.32,2,0,5,0.00
2013-4-27,68,56,41,51,42,35,87,62,33,30.33,30.09,4,1,7,0.00
2013-4-28,69,61,55,55,53,50,96,77,58,30.09,29.84,7,3,13,0.22
2013-4-29,66,60,54,57,55,52,97,82,63,29.98,29.89,4,0,7,0.02
2013-4-30,80,63,48,60,52,48,100,73,34,30.05,29.97,4,1,7,0.00
2013-5-1,82,67,51,57,53,48,98,64,34,30.18,30.04,6,2,8,0.00
2013-5-2,76,67,56,58,52,48,78,61,46,30.23,30.08,6,2,9,0.00
2013-5-3,75,66,54,54,45,34,84,50,25,30.12,30.00,8,3,16,0.00
2013-5-4,74,63,54,48,44,37,77,51,35,30.03,29.91,8,2,12,0.00
2013-5-5,62,57,54,56,47,32,97,71,36,29.99,29.87,5,1,8,0.35
2013-5-6,63,58,55,58,53,49,95,84,72,29.89,29.84,5,2,10,0.17
2013-5-7,69,58,50,60,55,48,99,91,65,29.94,29.87,3,0,5,0.31
2013-5-8,73,61,54,59,56,51,100,84,47,29.97,29.85,4,1,7,0.02
2013-5-9,80,66,51,63,57,51,99,76,42,30.03,29.94,3,0,8,0.00
2013-5-10,77,66,59,64,60,56,95,82,57,29.97,29.82,8,2,9,0.11
2013-5-11,64,60,51,61,56,48,97,86,71,29.91,29.79,5,2,10,0.03
2013-5-12,61,51,41,50,36,28,95,59,31,30.12,29.91,6,2,16,0.01
2013-5-13,63,50,39,40,34,28,92,59,27,30.17,30.09,6,1,13,0.00
2013-5-14,79,53,35,55,43,34,95,73,36,30.17,29.84,5,0,6,0.00
2013-5-15,88,75,58,61,55,48,88,53,29,29.92,29.80,8,3,14,0.00
2013-5-16,77,68,62,66,58,49,98,74,49,29.98,29.84,4,1,12,0.37
2013-5-17,81,68,58,67,62,58,100,82,57,30.06,29.97,3,0,7,0.01
2013-5-18,82,70,62,68,64,60,99,82,49,30.03,29.92,5,1,11,0.08
2013-5-19,86,72,64,70,66,63,98,82,50,30.00,29.88,3,1,7,0.01
2013-5-20,84,73,63,71,67,62,98,81,59,30.01,29.89,4,1,8,0.00
2013-5-21,88,75,65,71,67,63,98,78,49,29.95,29.80,9,1,9,0.05
2013-5-22,86,73,60,67,63,60,98,73,43,29.88,29.74,8,2,16,0.03
2013-5-23,78,69,58,67,61,54,97,77,48,29.94,29.78,8,2,15,0.15
2013-5-24,64,56,46,54,41,36,88,60,35,30.29,29.94,6,3,17,0.02
2013-5-25,68,53,38,48,40,33,97,65,32,30.38,30.21,3,1,6,0.00
2013-5-26,73,61,47,49,44,37,85,56,33,30.30,30.18,3,1,6,0.00
2013-5-27,82,67,56,63,54,46,82,64,42,30.22,29.98,5,1,7,0.01
2013-5-28,86,75,65,64,59,56,79,60,40,30.07,29.93,6,2,13,0.00
2013-5-29,88,76,63,66,61,56,87,61,39,30.11,30.00,6,1,12,0.00
2013-5-30,89,76,62,66,63,57,98,69,36,30.17,30.01,2,0,6,0.00
2013-5-31,89,76,63,66,63,61,94,66,40,30.09,29.94,6,1,10,0.00
2013-6-1,87,78,68,72,66,61,89,66,52,29.97,29.77,8,2,12,0.01
2013-6-2,78,72,67,68,66,64,95,82,61,29.90,29.79,4,1,7,0.11
2013-6-3,78,68,62,66,60,55,99,77,46,30.02,29.84,4,1,7,0.26
2013-6-4,77,65,53,55,51,47,96,64,36,30.12,30.02,4,1,7,0.00
2013-6-5,87,68,52,66,58,50,93,73,42,30.06,29.85,5,1,10,0.00
2013-6-6,79,71,66,72,67,65,99,86,69,29.87,29.71,5,1,10,0.63
2013-6-7,71,65,58,65,60,56,98,85,67,29.86,29.72,4,1,8,0.00
2013-6-8,81,68,57,62,59,56,99,75,45,30.03,29.86,2,0,6,0.00
2013-6-9,85,70,59,70,63,58,99,81,42,30.07,29.94,4,1,8,0.63
2013-6-10,80,69,64,69,66,63,99,93,57,29.95,29.77,5,1,9,0.86
2013-6-11,86,74,63,68,65,63,98,76,48,29.94,29.85,5,2,11,0.00
2013-6-12,93,79,66,75,70,64,96,74,53,29.91,29.75,5,1,10,0.00
2013-6-13,81,75,61,74,66,57,97,76,53,29.84,29.57,10,2,18,0.42
2013-6-14,81,68,55,62,57,53,99,71,40,30.03,29.85,5,1,7,0.00
2013-6-15,83,69,54,65,59,54,99,73,41,30.11,29.96,3,0,7,0.00
2013-6-16,82,71,63,72,66,61,96,84,60,30.03,29.94,4,1,8,0.07
2013-6-17,89,75,65,72,67,64,99,79,47,29.97,29.83,3,0,6,0.00
2013-6-18,80,70,65,68,65,63,98,86,59,29.93,29.82,4,0,10,0.48
2013-6-19,83,71,62,66,61,55,97,72,39,30.09,29.91,3,0,7,0.00
2013-6-20,87,72,56,64,60,56,99,72,36,30.18,30.09,3,0,7,0.00
2013-6-21,89,74,60,69,63,59,98,72,40,30.19,30.09,2,0,6,0.00
2013-6-22,90,78,66,71,68,65,97,74,46,30.18,30.02,3,1,5,0.00
2013-6-23,90,77,66,71,66,61,99,73,40,30.14,30.02,3,1,7,0.00
2013-6-24,91,77,66,70,68,64,98,75,45,30.13,30.01,4,1,10,0.00
2013-6-25,92,80,68,73,69,66,95,72,46,30.06,29.90,4,1,8,0.00
2013-6-26,86,78,69,73,70,66,97,79,57,29.92,29.77,6,1,7,0.23
2013-6-27,84,73,67,72,69,66,100,88,62,29.81,29.67,4,1,10,1.16
2013-6-28,88,79,69,71,66,58,95,68,40,29.68,29.52,8,3,17,0.00
2013-6-29,83,70,60,70,63,59,97,80,49,29.66,29.55,5,1,11,0.32
2013-6-30,84,71,62,70,66,62,99,86,54,29.77,29.62,4,0,6,0.08
2013-7-1,84,72,65,68,66,63,99,82,54,29.89,29.75,5,1,7,0.31
2013-7-2,84,73,64,70,67,64,100,82,55,30.01,29.87,5,1,7,0.01
2013-7-3,85,74,67,72,69,66,97,85,58,30.11,30.01,3,0,6,0.03
2013-7-4,80,72,68,72,69,67,99,92,72,30.18,30.07,4,0,8,0.82
2013-7-5,84,73,68,73,70,67,100,90,62,30.15,30.07,5,1,10,0.25
2013-7-6,86,74,69,74,70,68,100,91,58,30.13,30.02,6,1,12,0.28
2013-7-7,80,72,67,72,69,66,100,91,70,30.12,30.01,2,0,5,0.54
2013-7-8,87,76,64,74,69,64,100,81,51,30.13,30.04,3,0,6,0.00
2013-7-9,91,79,72,76,71,-100,96,79,48,30.07,29.97,4,-10,7,0.01
2013-7-10,88,77,68,77,72,66,97,85,61,29.98,29.83,11,1,12,0.30
2013-7-11,81,71,66,70,68,66,100,90,65,29.96,29.88,6,1,11,0.01
2013-7-12,81,71,62,65,59,-100,87,68,47,30.04,29.95,9,-2,13,0.00
2013-7-13,85,74,61,68,64,59,95,73,52,30.11,30.02,7,1,12,0.00
2013-7-14,88,79,68,73,69,66,93,73,55,30.21,30.10,11,2,13,0.00
2013-7-15,92,80,68,73,69,66,98,74,44,30.29,30.19,6,0,8,0.00
2013-7-16,94,81,68,74,71,68,98,74,44,30.30,30.21,3,0,5,0.00
2013-7-17,94,82,72,77,73,69,97,76,46,30.27,30.13,12,1,12,0.00
2013-7-18,94,83,74,78,74,72,98,78,50,30.16,30.00,5,0,7,0.00
2013-7-19,92,81,73,77,74,70,98,80,56,30.03,29.88,8,1,12,0.01
2013-7-20,91,78,70,75,72,68,98,81,51,29.93,29.81,8,2,17,0.24
2013-7-21,85,75,69,74,71,69,100,87,61,29.96,29.85,6,0,7,0.66
2013-7-22,83,73,71,74,71,69,98,93,69,29.91,29.75,6,0,11,0.82
2013-7-23,89,76,69,74,70,66,99,84,51,29.81,29.71,8,1,12,0.05
2013-7-24,79,72,68,69,65,60,99,82,55,29.93,29.72,6,1,12,0.36
2013-7-25,79,68,58,61,58,55,95,71,47,30.06,29.93,8,1,10,0.00
2013-7-26,83,69,56,67,60,55,100,77,42,30.08,29.96,9,0,10,0.01
2013-7-27,80,70,63,68,64,62,98,83,60,29.96,29.83,10,1,12,0.25
2013-7-28,77,68,58,65,59,51,99,76,42,30.06,29.86,11,1,13,0.01
2013-7-29,80,66,52,64,56,51,99,76,41,30.16,30.05,8,0,12,0.00
2013-7-30,83,71,58,68,62,57,99,77,46,30.21,30.11,5,0,8,0.00
2013-7-31,76,70,66,68,66,64,98,89,71,30.11,29.93,6,0,8,0.04
2013-8-1,85,74,65,69,66,62,97,80,51,29.94,29.88,8,1,14,0.00
2013-8-2,84,72,60,67,63,59,99,75,44,30.00,29.93,11,1,11,0.00
2013-8-3,82,73,67,69,67,65,96,83,64,29.98,29.92,7,0,11,0.00
2013-8-4,79,70,60,70,63,54,100,81,46,30.08,29.97,7,1,11,0.01
2013-8-5,80,67,54,62,57,51,99,75,40,30.10,29.96,7,0,8,0.00
2013-8-6,84,72,63,69,63,58,95,74,49,29.99,29.91,6,0,8,0.00
2013-8-7,85,76,67,75,71,66,99,85,66,29.94,29.87,7,1,10,0.02
2013-8-8,84,77,71,75,72,70,98,87,69,29.93,29.88,8,1,13,0.10
2013-8-9,86,76,72,74,72,71,99,90,64,29.99,29.88,10,1,16,0.57
2013-8-10,84,76,69,73,70,66,100,84,58,30.08,29.98,9,0,9,1.41
2013-8-11,88,75,68,75,70,66,99,87,53,30.08,29.99,5,0,8,0.23
2013-8-12,83,74,70,75,72,70,100,92,70,30.04,29.87,8,1,11,0.02
2013-8-13,79,72,66,73,67,58,98,85,62,29.97,29.82,8,1,16,0.44
2013-8-14,66,58,52,58,53,51,98,85,74,30.08,29.97,2,0,4,0.00
2013-8-16,77,67,61,62,60,58,94,79,54,30.11,30.07,2,0,3,0.00
2013-8-17,78,67,57,64,61,56,100,81,54,30.16,30.10,7,1,9,0.00
2013-8-18,72,67,64,69,66,63,98,95,85,30.16,30.09,3,0,6,0.28
2013-8-19,82,70,64,68,65,62,100,87,53,30.14,30.04,5,0,7,0.00
2013-8-20,84,72,62,72,65,62,100,81,50,30.17,30.06,6,0,8,0.01
2013-8-21,88,73,65,74,68,65,99,86,51,30.16,30.05,7,0,12,0.00
2013-8-22,88,74,65,73,68,63,97,83,53,30.12,29.98,7,1,12,0.06
2013-8-23,85,74,66,71,68,64,100,83,52,30.09,29.97,8,1,12,0.01
2013-8-24,84,71,60,69,62,55,100,78,37,30.25,30.09,5,1,10,0.00
2013-8-25,84,70,57,67,59,51,100,74,32,30.35,30.22,6,0,8,0.00
2013-8-26,89,73,57,71,64,57,99,79,41,30.26,30.05,8,0,10,0.00
2013-8-27,89,78,68,74,71,67,97,80,57,30.05,29.94,6,1,11,0.00
2013-8-28,90,79,73,75,73,70,99,82,56,29.94,29.80,14,2,30,1.13
2013-8-29,84,75,70,74,71,70,99,90,65,30.00,29.89,6,0,11,0.01
2013-8-30,88,76,68,74,70,67,100,85,52,29.96,29.83,6,0,12,0.00
2013-8-31,84,74,68,72,70,68,99,88,61,29.91,29.75,11,1,13,0.12
2013-9-1,86,76,69,71,69,68,98,82,57,29.82,29.74,7,0,8,0.00
2013-9-2,88,77,70,72,70,66,98,81,55,29.83,29.75,8,1,13,0.00
2013-9-3,80,71,61,67,62,56,98,74,49,30.05,29.81,8,1,14,0.00
2013-9-4,81,65,52,63,57,52,99,78,45,30.13,30.04,7,0,7,0.00
2013-9-5,85,69,55,68,61,55,100,78,46,30.16,30.09,5,0,8,0.00
2013-9-6,80,67,55,62,54,48,93,66,34,30.22,30.09,6,0,8,0.00
2013-9-7,84,67,51,67,57,50,100,76,34,30.11,29.95,6,0,8,0.00
2013-9-8,89,75,63,72,67,62,97,79,47,29.96,29.90,5,0,10,0.00
2013-9-9,90,76,65,73,69,65,99,80,47,30.04,29.96,7,1,10,0.00
2013-9-10,91,79,70,74,71,68,98,80,53,30.14,30.02,8,1,10,0.00
2013-9-11,90,79,70,74,72,70,99,81,54,30.15,30.01,8,0,11,0.00
2013-9-12,87,74,68,73,70,67,98,89,60,30.01,29.82,12,1,21,0.48
2013-9-13,69,64,53,68,54,46,98,74,48,30.04,29.81,12,2,14,0.02
2013-9-14,70,58,47,52,48,44,96,74,43,30.15,30.04,6,0,8,0.00
2013-9-15,78,62,47,62,55,47,100,81,50,30.16,30.03,10,1,13,0.01
2013-9-16,71,64,55,63,59,54,98,85,64,30.25,30.04,5,0,10,0.04
2013-9-17,75,62,51,59,55,50,99,80,49,30.31,30.15,11,1,12,0.00
2013-9-18,67,62,55,63,59,54,98,92,79,30.17,30.09,5,0,8,0.01
2013-9-19,77,67,60,70,66,60,100,95,80,30.11,29.97,5,0,6,0.19
2013-9-20,85,74,65,70,67,65,100,83,53,30.01,29.80,6,1,13,0.00
2013-9-21,71,66,57,68,64,56,99,93,71,29.81,29.65,12,0,16,0.88
2013-9-22,67,58,49,56,53,48,99,84,58,29.99,29.81,6,0,6,0.00
2013-9-23,69,56,44,52,48,43,100,77,49,30.10,29.99,7,1,8,0.01
2013-9-24,75,58,42,61,51,41,100,81,56,30.09,29.91,6,0,6,0.00
2013-9-25,73,62,52,63,57,51,99,87,61,29.91,29.84,3,0,7,0.00
2013-9-26,77,63,56,65,60,56,100,89,57,30.04,29.88,6,0,10,0.00
2013-9-27,80,64,54,63,56,51,100,80,40,30.15,30.04,6,0,6,0.01
2013-9-28,79,63,51,64,56,51,100,82,42,30.21,30.07,6,0,7,0.01
2013-9-29,76,64,53,64,59,53,99,85,56,30.09,29.98,7,0,8,0.00
2013-9-30,76,65,58,64,61,58,100,88,57,30.05,29.95,5,0,8,0.00
2013-10-1,81,68,57,64,60,57,100,80,48,30.09,30.00,6,0,9,0.00
2013-10-2,83,69,58,68,63,58,100,83,54,30.12,30.01,6,0,7,0.00
2013-10-3,83,70,64,71,66,63,99,91,59,30.08,30.01,7,0,12,0.10
2013-10-4,85,71,61,72,64,61,100,84,48,30.11,30.01,7,0,9,0.01
2013-10-5,84,72,63,71,67,62,99,85,59,30.07,29.93,5,0,8,0.00
2013-10-6,86,73,60,68,64,56,99,75,46,29.93,29.70,16,2,17,0.02
2013-10-7,67,56,46,56,49,43,99,78,45,30.14,29.80,11,1,16,0.48
2013-10-8,69,53,42,53,45,41,100,77,37,30.27,30.14,10,1,14,0.01
2013-10-9,73,55,42,53,46,41,100,76,32,30.25,30.14,6,0,8,0.00
2013-10-10,76,57,43,52,46,42,100,74,30,30.18,30.04,5,0,8,0.00
2013-10-11,78,61,46,59,52,46,99,75,46,30.08,29.97,11,1,13,0.00
2013-10-12,63,60,56,58,56,54,97,87,80,30.12,30.01,2,0,5,0.00
2013-10-13,73,63,55,62,59,54,100,87,66,30.24,30.11,6,0,9,0.00
2013-10-14,67,64,60,62,59,56,94,87,77,30.27,30.16,6,1,7,0.00
2013-10-15,74,65,58,62,60,56,99,86,64,30.17,29.95,4,0,7,0.00
2013-10-16,68,63,61,63,62,60,98,95,78,29.95,29.90,6,0,11,0.15
2013-10-17,61,55,50,60,54,49,99,97,92,29.99,29.83,8,0,13,0.33
2013-10-18,66,53,41,53,45,39,100,80,40,30.07,29.96,5,0,8,0.01
2013-10-19,56,46,40,51,44,39,100,92,73,30.03,29.83,11,1,16,0.03
2013-10-20,62,47,36,46,39,34,100,78,36,30.11,30.02,8,1,10,0.00
2013-10-21,70,51,34,47,40,33,100,70,30,30.09,29.90,10,1,14,0.00
2013-10-22,57,49,41,47,37,28,92,67,33,30.05,29.86,8,1,13,0.07
2013-10-23,46,42,36,45,40,35,98,90,76,30.05,29.72,8,1,13,0.19
2013-10-24,50,42,36,37,34,25,96,76,42,30.24,30.05,7,1,12,0.01
2013-10-25,47,39,32,37,32,27,97,78,46,30.44,30.24,6,1,9,0.00
2013-10-26,52,41,28,33,28,25,95,66,36,30.34,29.98,14,1,17,0.01
2013-10-27,63,47,34,41,36,32,97,68,34,30.11,30.03,11,0,12,0.00
2013-10-28,62,46,35,50,41,34,99,85,54,30.27,30.10,2,0,5,0.00
2013-10-29,59,49,42,55,48,41,100,97,81,30.36,30.22,2,0,2,0.01
2013-10-30,66,59,52,63,58,51,100,96,86,30.22,30.05,2,0,3,0.11
2013-10-31,73,65,61,61,58,54,98,77,57,30.05,29.44,11,2,17,0.01
2013-11-1,73,60,53,62,50,43,95,69,41,29.72,29.41,19,3,32,0.20
2013-11-2,58,52,44,46,42,36,92,70,46,30.03,29.69,10,1,14,0.00
2013-11-3,54,43,33,42,36,32,97,81,51,30.39,30.04,6,0,8,0.00
2013-11-4,60,45,31,42,37,30,99,77,44,30.44,30.32,5,0,6,0.01
2013-11-5,65,51,41,41,38,35,88,64,34,30.44,30.27,6,0,8,0.00
2013-11-6,74,60,41,59,47,37,94,65,46,30.27,29.93,17,2,19,0.05
2013-11-7,61,46,32,60,38,25,96,75,41,30.22,29.91,13,2,15,0.32
2013-11-8,53,40,31,32,28,23,86,63,31,30.37,30.20,6,1,11,0.00
2013-11-9,64,47,28,34,26,20,96,52,18,30.27,30.06,11,2,18,0.00
2013-11-10,53,47,31,38,30,23,82,54,31,30.34,30.09,13,2,18,0.00
2013-11-11,61,45,27,40,26,21,93,56,21,30.34,30.05,15,1,16,0.00
2013-11-12,52,33,24,42,26,20,96,77,57,30.61,30.08,11,2,18,0.15
2013-11-13,41,29,18,25,19,14,94,71,34,30.65,30.45,7,0,12,0.00
2013-11-14,56,37,23,26,21,15,90,59,20,30.44,30.19,11,1,12,0.00
2013-11-15,58,44,28,45,32,23,96,68,30,30.25,30.12,8,0,12,0.04
2013-11-16,65,52,39,54,48,38,100,87,65,30.16,29.96,8,0,12,0.00
2013-11-17,66,60,54,61,54,50,99,81,68,29.96,29.59,24,2,32,0.68
2013-11-18,60,51,42,50,36,26,88,59,34,30.13,29.77,15,2,20,0.00
2013-11-19,42,36,28,30,27,24,89,70,55,30.34,30.13,6,1,11,0.00
2013-11-20,55,40,28,32,28,24,90,62,37,30.35,30.24,6,1,10,0.00
2013-11-21,59,48,37,44,36,27,77,63,51,30.36,30.17,5,0,5,0.00
2013-11-22,59,52,42,58,49,36,98,88,72,30.27,30.10,13,1,17,0.25
2013-11-23,44,37,27,36,24,12,81,61,29,30.47,30.25,19,3,21,0.00
2013-11-24,30,24,17,18,8,4,76,53,34,30.68,30.47,14,2,17,0.00
2013-11-25,43,31,16,31,16,10,87,57,29,30.58,30.22,10,1,14,0.00
2013-11-26,36,34,32,36,33,31,99,97,87,30.22,29.83,10,1,11,0.62
2013-11-27,32,29,24,31,23,16,98,79,61,30.29,29.84,17,3,22,0.03
2013-11-28,35,26,17,21,17,14,89,71,49,30.47,30.30,10,1,11,0.05
2013-11-29,43,28,17,27,21,14,94,76,43,30.63,30.48,5,0,7,0.00
2013-11-30,54,34,20,30,25,18,95,74,37,30.54,30.22,8,1,14,0.00
2013-12-1,47,40,29,34,30,26,92,69,50,30.22,29.96,6,0,9,0.00
2013-12-2,57,45,35,40,36,32,91,72,49,29.96,29.75,4,0,6,0.00
2013-12-3,58,46,35,47,41,33,97,84,64,29.87,29.77,6,0,8,0.00
2013-12-4,68,56,40,54,48,39,98,77,59,29.91,29.76,8,1,15,0.00
2013-12-5,70,58,38,62,53,37,97,83,67,30.08,29.80,11,2,19,0.62
2013-12-6,38,35,31,37,34,30,97,95,94,30.31,30.04,7,1,11,0.77
2013-12-7,31,29,26,30,24,20,95,82,73,30.58,30.31,7,1,10,0.04
2013-12-8,33,30,25,33,27,19,99,92,77,30.54,30.02,6,1,9,0.00
2013-12-9,37,34,31,36,32,26,100,89,77,30.22,30.01,6,1,10,0.53
2013-12-10,34,30,27,26,21,16,80,68,50,30.34,30.07,11,2,14,0.04
2013-12-11,42,30,17,24,20,14,92,68,43,30.45,30.29,11,1,17,0.11
2013-12-12,30,25,18,18,10,2,71,54,30,30.56,30.36,10,1,13,0.00
2013-12-13,44,30,16,24,16,9,84,59,30,30.37,30.15,13,1,13,0.03
2013-12-14,42,38,34,42,37,22,99,94,57,30.19,29.70,12,1,13,0.29
2013-12-15,39,33,30,37,27,23,91,80,71,30.11,29.77,13,3,21,0.00
2013-12-16,39,33,29,32,28,24,94,82,72,30.14,30.02,7,0,11,0.01
2013-12-17,43,38,30,37,32,22,95,78,65,30.17,29.94,8,2,18,0.00
2013-12-18,41,32,27,25,22,18,82,66,41,30.27,30.13,13,2,18,0.00
2013-12-19,62,45,29,32,24,18,73,46,27,30.16,30.01,13,2,20,0.00
2013-12-20,62,57,46,51,39,22,89,54,30,30.01,29.88,11,2,17,0.04
2013-12-21,74,66,57,63,57,50,95,75,58,29.89,29.56,14,3,22,0.30
2013-12-22,71,60,53,60,54,47,97,82,62,29.96,29.54,19,3,27,0.81
2013-12-23,53,39,31,50,34,26,97,83,64,30.34,29.95,16,2,20,0.09
2013-12-24,32,26,16,26,15,6,87,65,40,30.56,30.32,14,2,19,0.00
2013-12-25,38,26,15,24,14,10,80,63,36,30.53,30.22,7,0,11,0.00
2013-12-26,45,36,25,26,22,18,84,57,36,30.39,30.19,12,2,20,0.00
2013-12-27,51,33,20,27,21,18,93,67,28,30.45,30.32,7,1,10,0.00
2013-12-28,53,39,23,31,25,20,90,61,31,30.34,30.02,7,0,8,0.00
2013-12-29,44,41,39,43,39,31,99,92,64,30.02,29.77,13,1,13,0.76
2013-12-30,38,34,30,37,27,21,94,77,65,30.20,29.96,10,1,14,0.01
2013-12-31,38,29,24,22,20,17,87,69,46,30.38,30.18,18,2,18,0.00
2014-1-1,50,34,22,28,24,19,91,69,32,30.32,30.03,7,1,11,0.00
2014-1-2,37,30,15,34,26,11,96,86,71,30.15,29.69,24,2,24,0.23